#timestamp,LO_Frequency,Hit,StdDev 
1561086015.7,286047001.0,N
1561086035.5,286046998.7,N
1561086055.4,286046999.2,N
1561086075.2,286046999.6,N
1561086095.0,286046996.5,N
1561086096.0,286046996.5,N
1561086115.8,286046999.3,N
1561086135.6,286046998.7,N
1561086155.5,286047001.1,N
1561086175.3,286046998.4,N
1561086195.1,286046999.1,N
1561086215.9,286046997.0,N
1561086235.7,286046999.2,N
1561086255.6,286046999.3,N
1561086275.4,286046996.5,N
1561086295.2,286046996.8,N
1561086315.1,286046999.5,N
1561086316.0,286046999.5,N
1561086335.8,286046999.3,N
1561086355.6,286046997.4,N
1561086375.5,286046998.9,N
1561086395.3,286046996.9,N
1561086415.2,286046997.0,N
1561086435.9,286046999.6,N
1561086455.7,286046999.2,N
1561086475.6,286046999.1,N
1561086495.4,286046996.5,N
1561086515.2,286046999.5,N
1561086535.1,286046996.5,N
1561086536.0,286046996.5,N
1561086555.8,286046997.5,N
1561086575.7,286046997.5,N
1561086595.5,286046995.3,Y
1561086615.3,286046998.3,P
1561086635.2,286046999.0,P
1561086655.0,286047001.0,N
1561086655.9,286047001.0,N
1561086675.8,286047001.2,N
1561086695.6,286047000.7,N
1561086715.4,286046998.5,N
1561086735.3,286047001.2,N
1561086755.1,286047000.5,N
1561086775.8,286047001.1,N
1561086795.7,286047001.0,N
1561086815.5,286047000.7,N
1561086835.4,286047001.1,N
1561086855.2,286047000.7,N
1561086875.0,286046999.9,N
1561086875.9,286046999.9,N
1561086895.8,286047000.9,N
1561086915.6,286047001.1,N
1561086935.4,286047002.5,N
1561086955.3,286047002.3,N
1561086975.1,286047000.6,N
1561086995.9,286047000.9,N
1561087015.7,286046999.9,N
1561087035.5,286046999.8,N
1561087055.4,286047000.5,N
1561087075.2,286047000.4,N
1561087095.0,286047000.9,N
1561087095.9,286047000.9,N
1561087115.8,286047000.0,N
1561087135.6,286047000.8,N
1561087155.5,286047002.1,N
1561087175.3,286047001.9,N
1561087195.1,286047000.0,N
1561087215.9,286047002.3,N
1561087235.7,286047001.4,N
1561087255.6,286047002.3,N
1561087275.4,286047002.7,Y
1561087295.2,286047000.5,P
1561087315.1,286047002.4,P
1561087316.0,286047002.4,N
1561087335.8,286047002.7,Y
1561087355.7,286047001.2,P
1561087375.5,286046999.2,P
1561087395.3,286046998.9,N
1561087415.2,286046998.7,N
1561087435.9,286046999.6,N
1561087455.7,286046998.4,N
1561087475.6,286046998.2,N
1561087495.4,286046999.1,N
1561087515.3,286046999.6,N
1561087535.1,286046998.9,N
1561087536.0,286046998.9,N
1561087555.8,286047000.6,N
1561087575.7,286047000.8,N
1561087595.5,286046999.3,N
1561087615.3,286046999.6,N
1561087635.2,286046998.8,N
1561087655.0,286046998.3,N
1561087655.9,286046998.3,N
1561087675.8,286046998.2,N
1561087695.6,286047001.2,N
1561087715.4,286046998.6,N
1561087735.3,286046998.2,N
1561087755.1,286046998.6,N
1561087775.9,286046999.3,N
1561087795.7,286046999.0,N
1561087815.5,286046998.7,N
1561087835.4,286046998.5,N
1561087855.2,286046998.4,N
1561087875.0,286046998.7,N
1561087875.9,286046998.7,N
1561087895.8,286046998.3,N
1561087915.6,286046998.3,N
1561087965.5,286046998.9,E
1561087975.4,286047000.6,N
1561087995.2,286047000.4,P
1561088015.1,286047000.2,N
1561088016.0,286047000.2,N
1561088035.8,286046998.3,Y
1561088055.7,286046998.3,P
1561088075.5,286046998.1,N
1561088095.4,286046998.4,N
1561088115.2,286047000.6,N
1561088135.0,286046998.4,N
1561088135.9,286046998.4,N
1561088155.8,286047001.0,N
1561088175.6,286047000.8,N
1561088195.4,286047000.9,N
1561088215.3,286046999.9,N
1561088235.1,286047000.0,N
1561088255.9,286047000.6,N
1561088275.7,286047001.1,N
1561088295.5,286047001.0,N
1561088315.4,286047000.9,N
1561088335.2,286047001.2,N
1561088355.0,286047002.2,N
1561088355.9,286047002.2,N
1561088375.8,286047002.0,N
1561088395.6,286047002.6,N
1561088415.5,286047000.5,N
1561088435.3,286046999.7,N
1561088455.1,286047000.6,N
1561088475.9,286047000.1,N
1561088495.7,286046999.7,N
1561088515.5,286047002.5,N
1561088535.4,286047002.5,N
1561088555.2,286046999.9,N
1561088575.1,286047002.2,N
1561088576.0,286047002.2,N
1561088595.8,286047002.1,N
1561088615.6,286047002.6,N
1561088635.5,286047004.4,Y
1561088655.3,286047002.3,P
1561088675.2,286046999.7,N
1561088695.9,286046999.9,N
1561088715.7,286046999.8,N
1561088735.6,286047002.8,N
1561088755.4,286046999.9,N
1561088775.3,286047002.7,N
1561088795.1,286047000.3,N
1561088796.0,286047000.3,N
1561088815.8,286047002.4,N
1561088835.7,286047001.7,N
1561088855.5,286047002.6,N
1561088875.3,286047000.1,N
1561088895.2,286046999.9,N
1561088915.0,286047000.5,N
1561088915.9,286047000.5,N
1561088935.8,286047000.5,N
1561088955.6,286047000.9,N
1561088975.4,286047000.4,N
1561088995.3,286047002.4,N
1561089015.1,286046999.7,N
1561089035.8,286046999.9,N
1561089055.7,286046999.7,N
1561089075.5,286047002.0,N
1561089095.4,286047002.7,N
1561089115.2,286046998.1,N
1561089135.0,286046998.7,N
1561089135.9,286046998.7,N
1561089155.8,286046997.0,N
1561089175.6,286046996.5,N
1561089195.4,286046997.0,N
1561089215.3,286046996.5,N
1561089235.1,286046998.5,N
1561089255.9,286047000.6,N
1561089275.7,286046999.8,N
1561089295.5,286047000.1,N
1561089315.4,286047001.0,N
1561089335.2,286046998.5,N
1561089355.0,286046998.5,N
1561089355.9,286046998.5,N
1561089375.8,286046998.8,N
1561089395.6,286046998.7,N
1561089415.5,286046999.2,N
1561089435.3,286046997.0,N
1561089455.1,286046998.3,N
1561089475.9,286046996.6,N
1561089495.7,286046996.8,N
1561089515.5,286046999.5,N
1561089535.4,286046998.7,N
1561089555.2,286046999.2,N
1561089575.1,286046999.5,N
1561089576.0,286046999.5,N
1561089595.8,286046999.2,N
